sat.trackr.live / text

‹ back to catalog

STARLINK-11586 [DTC]

NORAD 63009 · 2025-032E

PAYLOAD ACTIVE UNKNOWN

§ Identity

Operator
Country
US
Launch date
2025-02-15
Launch site
AFETR
Launch vehicle
Mass (kg)
RCS (m²)

Purposes: comms

External: N2YO · Heavens-Above · Gunter

§ Orbital elements

Epoch: 2026-05-24T23:44:37.827744Z

Period
91.67 min
Inclination
43.0004°
Eccentricity
0.0002062
Mean motion
15.70867826 rev/d
Perigee alt
355.0 km
Apogee alt
357.8 km
Semi-major
6,734.6 km
B*
1.2431e-3
RAAN
95.4404°
Arg perigee
269.2818°
Mean anomaly
90.7813°
Rev number
7,421

§ Raw data

STARLINK-11586 [DTC]1 63009U 25032E   26144.98932671  .00162404  00000+0  12431-2 0  99912 63009  43.0004  95.4404 0002062 269.2818  90.7813 15.70867826 74215

JSON: /api/v1/satellites/63009 · /tle

For live sub-satellite position, see the globe view (requires WebGL).

§ Visibility from observer

Set your observer location to see the next 7 days of passes ≥ 10°. The values pass through the URL so the page stays shareable.

No JS? Fill the form by hand. The geolocation button needs JavaScript.